NOS3865 GVAC-LIME

Flight info

Callsign NOS3865
Flight time N/A
Altitude 35000
Route DIMKI1A DIMKI DCT IPERA/N0466F340 DCT ISOKA DCT LIMAL/N0457F360 DCT UDATI DCT ODEGI DCT LOMAS DCT GDV DCT LZR DCT VEDOD DCT TOVRA DCT ERMED DCT IBALU DCT TAVSI DCT VJF DCT BRIKE DCT MGA DCT VIBAS DCT BAZAS DCT MAMIS DCT YES DCT XEBAR DCT POBOS DCT ASTRO DCT SERRA DCT VLC DCT SOPET/N0450F380 DCT DIKUT DCT TORDU DCT LOTOS DCT EBROX DCT PEXOT DCT RODRA DCT BCN DCT NENDA DCT BGR DCT BISBA DCT NILDU DCT DIVKO DCT MTG DCT ABLAK DCT ABILI DCT ALEXA
Aircraft B38M/M-SDE1FGHILORVWXY/HB1

Departure

Time 2026-04-27 14:51
Airport Amílcar Cabral International Airport (GVAC)

Arrival

Time N/A
Airport Il Caravaggio International Airport (LIME)
Time Latitude Longitude Altitude Speed Heading
2026-04-27 14:25 16.73495 -22.94499 203 ft 0 kts 90°
2026-04-27 14:42 16.73495 -22.94507 203 ft 3 kts 90°
2026-04-27 14:42 16.73495 -22.94528 206 ft 3 kts 90°
2026-04-27 14:42 16.73495 -22.94549 206 ft 3 kts 90°
2026-04-27 14:43 16.73495 -22.94569 205 ft 3 kts 96°
2026-04-27 14:43 16.73501 -22.94586 216 ft 3 kts 135°
2026-04-27 14:43 16.73516 -22.94595 207 ft 3 kts 172°
2026-04-27 14:43 16.73528 -22.94596 214 ft 2 kts 179°
2026-04-27 14:44 16.73547 -22.94597 203 ft 3 kts 179°
2026-04-27 14:44 16.73563 -22.94597 207 ft 1 kts 179°
2026-04-27 14:44 16.73564 -22.94597 206 ft 2 kts 179°
2026-04-27 14:46 16.73551 -22.94597 203 ft 5 kts 179°
2026-04-27 14:46 16.73484 -22.94596 205 ft 12 kts 179°
2026-04-27 14:46 16.73395 -22.94595 203 ft 13 kts 180°
2026-04-27 14:47 16.73299 -22.94595 211 ft 14 kts 180°
2026-04-27 14:47 16.73198 -22.94594 212 ft 15 kts 180°
2026-04-27 14:47 16.73093 -22.94603 213 ft 15 kts 210°
2026-04-27 14:47 16.73022 -22.94688 208 ft 16 kts 201°
2026-04-27 14:48 16.72890 -22.94690 192 ft 22 kts 179°
2026-04-27 14:48 16.72556 -22.94688 186 ft 26 kts 179°
2026-04-27 14:48 16.72419 -22.94697 182 ft 16 kts 221°
2026-04-27 14:49 16.72406 -22.94803 187 ft 15 kts 268°
2026-04-27 14:49 16.72351 -22.94881 193 ft 14 kts 199°
2026-04-27 14:49 16.72258 -22.94847 191 ft 15 kts 143°
2026-04-27 14:49 16.72170 -22.94819 185 ft 14 kts 222°
2026-04-27 14:50 16.72191 -22.94884 187 ft 12 kts 351°
2026-04-27 14:50 16.72230 -22.94885 187 ft 0 kts 359°
2026-04-27 14:50 16.72244 -22.94885 187 ft 17 kts 360°
2026-04-27 14:50 16.72629 -22.94883 188 ft 92 kts 359°
2026-04-27 14:51 16.73494 -22.94891 198 ft 154 kts
2026-04-27 14:51 16.74686 -22.94922 579 ft 179 kts
2026-04-27 14:51 16.75918 -22.95099 1481 ft 177 kts 346°
2026-04-27 14:51 16.76708 -22.95294 2034 ft 181 kts 357°
2026-04-27 14:52 16.78534 -22.95288 2550 ft 215 kts
2026-04-27 14:52 16.80100 -22.95254 3117 ft 231 kts
2026-04-27 14:52 16.81712 -22.95222 4031 ft 233 kts
2026-04-27 14:52 16.83362 -22.95194 4796 ft 243 kts 360°
2026-04-27 14:53 16.85104 -22.95163 5469 ft 258 kts 357°
2026-04-27 14:53 16.86914 -22.95128 6148 ft 268 kts 357°
2026-04-27 14:53 16.88800 -22.95091 6846 ft 275 kts 356°
2026-04-27 14:53 16.90742 -22.95046 7504 ft 284 kts 359°
2026-04-27 14:54 16.92689 -22.94483 8175 ft 298 kts 25°
2026-04-27 14:54 16.94457 -22.93282 8891 ft 307 kts 31°
2026-04-27 14:54 16.96249 -22.92017 9597 ft 313 kts 31°
2026-04-27 14:54 16.98059 -22.90725 10276 ft 319 kts 31°
2026-04-27 14:55 16.99941 -22.89375 10621 ft 338 kts 32°
2026-04-27 14:55 17.01914 -22.87954 10875 ft 357 kts 32°
2026-04-27 14:55 17.04000 -22.86447 11218 ft 372 kts 32°
2026-04-27 14:55 17.06147 -22.84897 11812 ft 375 kts 32°
2026-04-27 14:56 17.08299 -22.83343 12522 ft 377 kts 32°
2026-04-27 14:56 17.10466 -22.81777 13166 ft 379 kts 32°
2026-04-27 14:56 17.12649 -22.80200 13834 ft 381 kts 32°
2026-04-27 14:56 17.14837 -22.78618 14380 ft 384 kts 32°
2026-04-27 14:57 17.17040 -22.77025 14906 ft 386 kts 32°
2026-04-27 14:57 17.19261 -22.75418 15413 ft 389 kts 32°
2026-04-27 14:57 17.21499 -22.73800 15921 ft 392 kts 32°
2026-04-27 14:57 17.23750 -22.72170 16409 ft 395 kts 32°
2026-04-27 14:58 17.26017 -22.70528 16894 ft 398 kts 32°
2026-04-27 14:58 17.28297 -22.68877 17354 ft 400 kts 32°
2026-04-27 14:58 17.30566 -22.67233 17801 ft 403 kts 32°
2026-04-27 14:58 17.32878 -22.65558 18244 ft 405 kts 32°
2026-04-27 14:59 17.35206 -22.63870 18627 ft 408 kts 32°
2026-04-27 14:59 17.37546 -22.62173 19004 ft 410 kts 32°
2026-04-27 14:59 17.39908 -22.60461 19369 ft 412 kts 32°
2026-04-27 14:59 17.42278 -22.58741 19736 ft 415 kts 32°
2026-04-27 15:00 17.44630 -22.57034 20092 ft 417 kts 32°
2026-04-27 15:00 17.47020 -22.55298 20452 ft 419 kts 32°
2026-04-27 15:00 17.49427 -22.53551 20811 ft 421 kts 32°
2026-04-27 15:00 17.51844 -22.51794 21165 ft 424 kts 32°
2026-04-27 15:01 17.54272 -22.50030 21517 ft 426 kts 32°
2026-04-27 15:01 17.56714 -22.48254 21860 ft 428 kts 32°
2026-04-27 15:01 17.59177 -22.46463 22202 ft 431 kts 32°
2026-04-27 15:01 17.61644 -22.44668 22543 ft 433 kts 32°
2026-04-27 15:02 17.64127 -22.42861 22879 ft 435 kts 31°
2026-04-27 15:02 17.66626 -22.41042 23203 ft 437 kts 31°
2026-04-27 15:02 17.69106 -22.39236 23523 ft 440 kts 31°
2026-04-27 15:02 17.71629 -22.37397 23812 ft 442 kts 31°
2026-04-27 15:03 17.74164 -22.35551 24093 ft 444 kts 31°
2026-04-27 15:03 17.76703 -22.33699 24377 ft 445 kts 31°
2026-04-27 15:03 17.79254 -22.31839 24662 ft 447 kts 31°
2026-04-27 15:03 17.81813 -22.29972 24944 ft 448 kts 31°
2026-04-27 15:04 17.84381 -22.28099 25217 ft 450 kts 31°
2026-04-27 15:04 17.86921 -22.26244 25497 ft 451 kts 31°
2026-04-27 15:04 17.89559 -22.24456 25755 ft 450 kts 25°
2026-04-27 15:04 17.92283 -22.22830 26018 ft 452 kts 25°
2026-04-27 15:05 17.95017 -22.21171 26295 ft 453 kts 25°
2026-04-27 15:05 17.97750 -22.19496 26575 ft 455 kts 25°
2026-04-27 15:05 18.00487 -22.17813 26841 ft 456 kts 25°
2026-04-27 15:05 18.03234 -22.16121 27109 ft 458 kts 25°
2026-04-27 15:06 18.05986 -22.14425 27374 ft 459 kts 25°
2026-04-27 15:06 18.08747 -22.12722 27640 ft 461 kts 25°
2026-04-27 15:06 18.11518 -22.11013 27892 ft 462 kts 25°
2026-04-27 15:06 18.14297 -22.09298 28148 ft 463 kts 25°
2026-04-27 15:07 18.17082 -22.07579 28407 ft 465 kts 25°
2026-04-27 15:07 18.19877 -22.05853 28655 ft 466 kts 25°
2026-04-27 15:07 18.22682 -22.04121 28900 ft 467 kts 25°
2026-04-27 15:07 18.25453 -22.02408 29139 ft 469 kts 24°
2026-04-27 15:08 18.28276 -22.00663 29368 ft 470 kts 24°
2026-04-27 15:08 18.31104 -21.98914 29607 ft 471 kts 24°
2026-04-27 15:08 18.33939 -21.97160 29836 ft 473 kts 24°
2026-04-27 15:08 18.36728 -21.95435 30059 ft 474 kts 24°
2026-04-27 15:09 18.39573 -21.93672 30258 ft 475 kts 24°
2026-04-27 15:09 18.42428 -21.91903 30431 ft 477 kts 24°
2026-04-27 15:09 18.45297 -21.90126 30619 ft 478 kts 24°
2026-04-27 15:09 18.48163 -21.88349 30848 ft 478 kts 24°
2026-04-27 15:10 18.51032 -21.86570 31083 ft 478 kts 24°
2026-04-27 15:10 18.53859 -21.84816 31315 ft 477 kts 24°
2026-04-27 15:10 18.56725 -21.83037 31555 ft 477 kts 24°
2026-04-27 15:10 18.59583 -21.81262 31785 ft 477 kts 24°
2026-04-27 15:11 18.62449 -21.79483 32025 ft 477 kts 24°
2026-04-27 15:11 18.65308 -21.77706 32264 ft 477 kts 23°
2026-04-27 15:11 18.68166 -21.75929 32496 ft 477 kts 23°
2026-04-27 15:11 18.71033 -21.74146 32723 ft 477 kts 23°
2026-04-27 15:12 18.73895 -21.72366 32951 ft 477 kts 23°
2026-04-27 15:12 18.76749 -21.70590 33183 ft 477 kts 23°
2026-04-27 15:12 18.79605 -21.68812 33397 ft 476 kts 23°
2026-04-27 15:12 18.82425 -21.67056 33622 ft 476 kts 23°
2026-04-27 15:13 18.85284 -21.65274 33832 ft 477 kts 23°
2026-04-27 15:13 18.88141 -21.63493 34039 ft 477 kts 23°
2026-04-27 15:13 18.90996 -21.61713 34233 ft 477 kts 23°
2026-04-27 15:13 18.93849 -21.59933 34403 ft 477 kts 23°
2026-04-27 15:14 18.95740 -21.58753 34515 ft 477 kts 22°
2026-04-27 15:14 18.98602 -21.56966 34682 ft 477 kts 22°
2026-04-27 15:14 19.01461 -21.55181 34855 ft 477 kts 22°
2026-04-27 15:14 19.04322 -21.53393 35007 ft 477 kts 22°
2026-04-27 15:15 19.10052 -21.49811 35058 ft 477 kts 22°
2026-04-27 15:15 19.15769 -21.46234 35059 ft 477 kts 22°
2026-04-27 15:16 19.21449 -21.42678 35062 ft 477 kts 22°
2026-04-27 15:16 19.27167 -21.39095 35062 ft 477 kts 22°
2026-04-27 15:17 19.32884 -21.35509 35063 ft 477 kts 22°
2026-04-27 15:17 19.38598 -21.31922 35066 ft 477 kts 22°
2026-04-27 15:18 19.44277 -21.28355 35067 ft 477 kts 22°
2026-04-27 15:18 19.49990 -21.24763 35061 ft 477 kts 22°
2026-04-27 15:19 19.55700 -21.21169 35064 ft 477 kts 22°
2026-04-27 15:19 19.61408 -21.17575 35063 ft 477 kts 22°
2026-04-27 15:20 19.67119 -21.13975 35065 ft 477 kts 22°
2026-04-27 15:20 19.72794 -21.10395 35063 ft 477 kts 22°
2026-04-27 15:21 19.78503 -21.06791 35065 ft 477 kts 22°
2026-04-27 15:21 19.84217 -21.03180 35062 ft 477 kts 22°
2026-04-27 15:22 19.89920 -20.99573 35062 ft 477 kts 22°
2026-04-27 15:22 19.95594 -20.95982 35065 ft 477 kts 21°
2026-04-27 15:23 20.01306 -20.92363 35064 ft 477 kts 21°
2026-04-27 15:23 20.07013 -20.88745 35066 ft 477 kts 21°
2026-04-27 15:24 20.12679 -20.85149 35065 ft 477 kts 21°
2026-04-27 15:24 20.18376 -20.81531 35064 ft 476 kts 21°
2026-04-27 15:25 20.24069 -20.77913 35067 ft 476 kts 21°
2026-04-27 15:25 20.29770 -20.74287 35063 ft 476 kts 21°
2026-04-27 15:26 20.35464 -20.70662 35062 ft 476 kts 21°
2026-04-27 15:26 20.41118 -20.67051 35065 ft 476 kts 21°
2026-04-27 15:27 20.46838 -20.63397 35064 ft 476 kts 21°
2026-04-27 15:27 20.52488 -20.59785 35069 ft 476 kts 21°
2026-04-27 15:28 20.58181 -20.56143 35070 ft 476 kts 21°
2026-04-27 15:28 20.63869 -20.52501 35067 ft 476 kts 21°
2026-04-27 15:29 20.69554 -20.48857 35068 ft 476 kts 21°
2026-04-27 15:29 20.75202 -20.45234 35068 ft 476 kts 21°
2026-04-27 15:30 20.80883 -20.41585 35070 ft 476 kts 21°
2026-04-27 15:30 20.86577 -20.37926 35068 ft 476 kts 21°
2026-04-27 15:31 20.92229 -20.34290 35066 ft 476 kts 21°
2026-04-27 15:31 20.97904 -20.30637 35069 ft 476 kts 21°
2026-04-27 15:32 21.03593 -20.26971 35070 ft 476 kts 21°
2026-04-27 15:32 21.09279 -20.23304 35069 ft 476 kts 21°
2026-04-27 15:33 21.14929 -20.19657 35068 ft 476 kts 21°
2026-04-27 15:33 21.20597 -20.15994 35069 ft 476 kts 21°
2026-04-27 15:34 21.26264 -20.12329 35068 ft 475 kts 21°
2026-04-27 15:34 21.31899 -20.08682 35067 ft 475 kts 21°
2026-04-27 15:35 21.37561 -20.05013 35070 ft 475 kts 21°
2026-04-27 15:35 21.43230 -20.01337 35072 ft 475 kts 22°
2026-04-27 15:36 21.48892 -19.97662 35069 ft 475 kts 22°
2026-04-27 15:36 21.54539 -19.93993 35070 ft 474 kts 22°
2026-04-27 15:37 21.60154 -19.90342 35068 ft 474 kts 22°
2026-04-27 15:37 21.65805 -19.86663 35067 ft 474 kts 22°
2026-04-27 15:38 21.71460 -19.82979 35072 ft 474 kts 22°
2026-04-27 15:38 21.77108 -19.79296 35070 ft 474 kts 22°
2026-04-27 15:39 21.82760 -19.75607 35070 ft 474 kts 22°
2026-04-27 15:39 21.88365 -19.71945 35069 ft 475 kts 22°
2026-04-27 15:40 21.94023 -19.68246 35068 ft 475 kts 23°
2026-04-27 15:40 21.99669 -19.64551 35069 ft 475 kts 23°
2026-04-27 15:41 22.05321 -19.60849 35070 ft 475 kts 23°
2026-04-27 15:41 22.10979 -19.57136 35075 ft 475 kts 23°
2026-04-27 15:42 22.16600 -19.53446 35069 ft 476 kts 24°
2026-04-27 15:42 22.22251 -19.49733 35074 ft 476 kts 24°
2026-04-27 15:43 22.27904 -19.46015 35070 ft 476 kts 24°
2026-04-27 15:43 22.33570 -19.42284 35070 ft 476 kts 24°
2026-04-27 15:44 22.39230 -19.38554 35070 ft 476 kts 24°
2026-04-27 15:44 22.44883 -19.34825 35072 ft 476 kts 24°
2026-04-27 15:45 22.50499 -19.31117 35074 ft 476 kts 25°
2026-04-27 15:45 22.56153 -19.27381 35073 ft 476 kts 25°
2026-04-27 15:46 22.61810 -19.23638 35073 ft 476 kts 25°
2026-04-27 15:46 22.67459 -19.19897 35073 ft 475 kts 25°
2026-04-27 15:47 22.73070 -19.16177 35077 ft 475 kts 25°
2026-04-27 15:47 22.78722 -19.12428 35075 ft 475 kts 25°
2026-04-27 15:48 22.84362 -19.08681 35070 ft 475 kts 25°
2026-04-27 15:49 22.92788 -19.03079 35077 ft 475 kts 25°
2026-04-27 15:49 22.98437 -18.99317 35069 ft 475 kts 25°
2026-04-27 15:50 23.04088 -18.95552 35066 ft 475 kts 25°
2026-04-27 15:50 23.09684 -18.91818 35065 ft 475 kts 25°
2026-04-27 15:51 23.15335 -18.88045 35070 ft 475 kts 25°
2026-04-27 15:51 23.20972 -18.84277 35071 ft 475 kts 25°
2026-04-27 15:52 23.26618 -18.80498 35069 ft 475 kts 25°
2026-04-27 15:52 23.32217 -18.76748 35071 ft 476 kts 26°
2026-04-27 15:53 23.37862 -18.72964 35072 ft 476 kts 26°
2026-04-27 15:53 23.43499 -18.69180 35072 ft 476 kts 26°
2026-04-27 15:54 23.49133 -18.65395 35070 ft 476 kts 26°
2026-04-27 15:54 23.54777 -18.61600 35072 ft 476 kts 26°
2026-04-27 15:55 23.60383 -18.57826 35072 ft 476 kts 26°
2026-04-27 15:55 23.66019 -18.54027 35068 ft 476 kts 26°
2026-04-27 15:56 23.71648 -18.50230 35067 ft 475 kts 26°
2026-04-27 15:56 23.77285 -18.46424 35070 ft 476 kts 26°
2026-04-27 15:57 23.82877 -18.42644 35069 ft 475 kts 26°
2026-04-27 15:57 23.88507 -18.38834 35069 ft 475 kts 25°
2026-04-27 15:58 23.94123 -18.35030 35067 ft 475 kts 26°
2026-04-27 15:58 23.99750 -18.31214 35065 ft 475 kts 26°
2026-04-27 15:59 24.04423 -18.28043 35064 ft 475 kts 26°
2026-04-27 15:59 24.10961 -18.23601 35064 ft 475 kts 26°
2026-04-27 16:00 24.16571 -18.19785 35064 ft 475 kts 26°
2026-04-27 16:00 24.21274 -18.16583 35065 ft 475 kts 26°
2026-04-27 16:01 24.26855 -18.12779 35063 ft 474 kts 26°
2026-04-27 16:01 24.32464 -18.08952 35066 ft 474 kts 26°
2026-04-27 16:02 24.38069 -18.05125 35064 ft 474 kts 26°
2026-04-27 16:02 24.43664 -18.01300 35063 ft 474 kts 26°
2026-04-27 16:03 24.49260 -17.97470 35064 ft 474 kts 26°
2026-04-27 16:03 24.54824 -17.93657 35064 ft 474 kts 26°
2026-04-27 16:04 24.60425 -17.89816 35069 ft 474 kts 26°
2026-04-27 16:04 24.66027 -17.85970 35066 ft 474 kts 26°
2026-04-27 16:05 24.71632 -17.82118 35056 ft 474 kts 26°
2026-04-27 16:05 24.77201 -17.78287 35067 ft 475 kts 26°
2026-04-27 16:06 24.82809 -17.74425 35072 ft 475 kts 26°
2026-04-27 16:06 24.88413 -17.70562 35061 ft 475 kts 25°
2026-04-27 16:07 24.93990 -17.66713 35062 ft 476 kts 25°
2026-04-27 16:07 24.99606 -17.62831 35060 ft 476 kts 26°
2026-04-27 16:08 25.05222 -17.58937 35064 ft 476 kts 25°
2026-04-27 16:08 25.10813 -17.55061 35061 ft 476 kts 25°
2026-04-27 16:09 25.16424 -17.51166 35060 ft 476 kts 25°
2026-04-27 16:09 25.24848 -17.45311 35060 ft 476 kts 25°
2026-04-27 16:10 25.36066 -17.37498 35059 ft 476 kts 25°
2026-04-27 16:11 25.44449 -17.31649 35060 ft 476 kts 25°
2026-04-27 16:12 25.52860 -17.25769 35063 ft 476 kts 25°
2026-04-27 16:13 25.61215 -17.19920 35063 ft 475 kts 25°
2026-04-27 16:13 25.69615 -17.14029 35057 ft 475 kts 25°
2026-04-27 16:14 25.80761 -17.06196 35058 ft 475 kts 25°
2026-04-27 16:15 25.91943 -16.98322 35053 ft 475 kts 25°
2026-04-27 16:16 26.03086 -16.90456 35057 ft 475 kts 25°
2026-04-27 16:17 26.14257 -16.82553 35057 ft 475 kts 25°
2026-04-27 16:18 26.25407 -16.74659 35053 ft 475 kts 25°
2026-04-27 16:19 26.31004 -16.70695 35052 ft 476 kts 25°
2026-04-27 16:20 26.42167 -16.62774 35054 ft 476 kts 25°
2026-04-27 16:21 26.50553 -16.56812 35051 ft 476 kts 25°
2026-04-27 16:22 26.61697 -16.48872 35050 ft 476 kts 25°
2026-04-27 16:22 26.70087 -16.42881 35052 ft 476 kts 26°
2026-04-27 16:23 26.78481 -16.36878 35047 ft 477 kts 26°
2026-04-27 16:24 26.84040 -16.32897 35051 ft 477 kts 26°
2026-04-27 16:25 26.95215 -16.24868 35047 ft 477 kts 26°
2026-04-27 16:26 27.06404 -16.16804 35049 ft 477 kts 27°
2026-04-27 16:27 27.17535 -16.08763 35053 ft 477 kts 27°
2026-04-27 16:28 27.31488 -15.98657 35036 ft 476 kts 27°
2026-04-27 16:29 27.45380 -15.88565 35033 ft 476 kts 28°
2026-04-27 16:30 27.56493 -15.80469 35029 ft 475 kts 28°
2026-04-27 16:31 27.70328 -15.70363 35029 ft 474 kts 28°
2026-04-27 16:32 27.78640 -15.64275 35035 ft 474 kts 28°
2026-04-27 16:33 27.86897 -15.58217 35032 ft 473 kts 28°
2026-04-27 16:33 27.92418 -15.54161 35071 ft 474 kts 28°
2026-04-27 16:34 27.97942 -15.50097 35043 ft 473 kts 29°
2026-04-27 16:34 28.03464 -15.46030 35051 ft 473 kts 29°
2026-04-27 16:35 28.08486 -15.41221 35035 ft 481 kts 51°
2026-04-27 16:36 28.14142 -15.31780 35040 ft 485 kts 53°
2026-04-27 16:36 28.17854 -15.25389 35034 ft 485 kts 54°
2026-04-27 16:37 28.21550 -15.18993 35032 ft 485 kts 54°
2026-04-27 16:37 28.25249 -15.12582 35030 ft 485 kts 54°
2026-04-27 16:38 28.28938 -15.06177 35028 ft 484 kts 54°
2026-04-27 16:38 28.32599 -14.99812 35032 ft 484 kts 54°
2026-04-27 16:39 28.36279 -14.93405 35033 ft 485 kts 54°
2026-04-27 16:39 28.39962 -14.86982 35031 ft 484 kts 54°
2026-04-27 16:40 28.43637 -14.80564 35028 ft 484 kts 55°
2026-04-27 16:40 28.47308 -14.74144 35029 ft 484 kts 55°
2026-04-27 16:41 28.50975 -14.67721 35029 ft 484 kts 55°
2026-04-27 16:41 28.54613 -14.61337 35027 ft 484 kts 55°
2026-04-27 16:42 28.58278 -14.54898 35025 ft 483 kts 55°
2026-04-27 16:42 28.61933 -14.48467 35027 ft 483 kts 56°
2026-04-27 16:43 28.65559 -14.42075 35019 ft 483 kts 56°
2026-04-27 16:43 28.69209 -14.35633 35022 ft 483 kts 56°
2026-04-27 16:44 28.72851 -14.29195 35020 ft 483 kts 56°
2026-04-27 16:44 28.76464 -14.22797 35023 ft 483 kts 56°
2026-04-27 16:45 28.80098 -14.16353 35017 ft 483 kts 56°
2026-04-27 16:45 28.83729 -14.09906 35014 ft 483 kts 56°
2026-04-27 16:46 28.86745 -14.04541 35014 ft 482 kts 56°
2026-04-27 16:46 28.90960 -13.97035 35015 ft 482 kts 57°
2026-04-27 16:47 28.93974 -13.91657 35003 ft 482 kts 57°
2026-04-27 16:47 28.97589 -13.85199 35007 ft 482 kts 57°
2026-04-27 16:48 29.01203 -13.78732 34995 ft 482 kts 57°
2026-04-27 16:48 29.04812 -13.72265 34991 ft 483 kts 57°
2026-04-27 16:49 29.10204 -13.62586 35000 ft 482 kts 57°
2026-04-27 16:49 29.13818 -13.56087 34991 ft 482 kts 57°
2026-04-27 16:50 29.17942 -13.50155 34994 ft 478 kts 37°
2026-04-27 16:50 29.23272 -13.45547 34999 ft 480 kts 35°
2026-04-27 16:51 29.28649 -13.41002 35004 ft 480 kts 35°
2026-04-27 16:51 29.34044 -13.36478 35003 ft 480 kts 35°
2026-04-27 16:52 29.39449 -13.31944 35005 ft 481 kts 35°
2026-04-27 16:52 29.44818 -13.27435 35004 ft 480 kts 35°
2026-04-27 16:53 29.50227 -13.22885 34999 ft 481 kts 35°
2026-04-27 16:53 29.55623 -13.18341 34994 ft 481 kts 35°
2026-04-27 16:54 29.61021 -13.13788 34993 ft 481 kts 35°
2026-04-27 16:54 29.66393 -13.09253 34988 ft 481 kts 35°
2026-04-27 16:55 29.71789 -13.04689 34994 ft 481 kts 35°
2026-04-27 16:55 29.77195 -13.00111 34993 ft 481 kts 35°
2026-04-27 16:56 29.82564 -12.95558 34994 ft 482 kts 35°
2026-04-27 16:56 29.87968 -12.90970 34992 ft 482 kts 36°
2026-04-27 16:57 29.93368 -12.86378 34988 ft 482 kts 36°
2026-04-27 16:57 29.98766 -12.81781 34990 ft 482 kts 36°
2026-04-27 16:58 30.04164 -12.77179 34987 ft 483 kts 36°
2026-04-27 16:58 30.09569 -12.72564 34987 ft 482 kts 36°
2026-04-27 16:59 30.14928 -12.67982 34982 ft 483 kts 36°
2026-04-27 16:59 30.20337 -12.63351 34982 ft 483 kts 36°
2026-04-27 17:00 30.28437 -12.56403 34982 ft 483 kts 36°
2026-04-27 17:01 30.33829 -12.51771 34977 ft 483 kts 36°
2026-04-27 17:01 30.39238 -12.47117 34980 ft 483 kts 36°
2026-04-27 17:02 30.44592 -12.42505 34978 ft 483 kts 36°
2026-04-27 17:02 30.50000 -12.37840 34977 ft 483 kts 36°
2026-04-27 17:03 30.55398 -12.33174 34972 ft 483 kts 36°
2026-04-27 17:03 30.60802 -12.28499 34971 ft 484 kts 36°
2026-04-27 17:04 30.66164 -12.23854 34970 ft 484 kts 36°
2026-04-27 17:04 30.71572 -12.19161 34966 ft 484 kts 36°
2026-04-27 17:05 30.76968 -12.14472 34958 ft 484 kts 36°
2026-04-27 17:05 30.82336 -12.09802 34967 ft 484 kts 36°
2026-04-27 17:06 30.87728 -12.05103 34971 ft 484 kts 36°
2026-04-27 17:06 30.93111 -12.00406 34961 ft 483 kts 36°
2026-04-27 17:07 30.98496 -11.95700 34963 ft 483 kts 36°
2026-04-27 17:07 31.03871 -11.90997 34958 ft 483 kts 36°
2026-04-27 17:08 31.09239 -11.86293 34961 ft 482 kts 36°
2026-04-27 17:08 31.14571 -11.81613 34955 ft 482 kts 36°
2026-04-27 17:09 31.19937 -11.76896 34956 ft 482 kts 36°
2026-04-27 17:09 31.25295 -11.72180 34945 ft 482 kts 36°
2026-04-27 17:10 31.30653 -11.67457 34953 ft 481 kts 36°
2026-04-27 17:10 31.35957 -11.62774 34943 ft 481 kts 36°
2026-04-27 17:11 31.41258 -11.58088 34952 ft 481 kts 36°
2026-04-27 17:11 31.49267 -11.50994 34944 ft 481 kts 36°
2026-04-27 17:12 31.57275 -11.43887 34942 ft 481 kts 36°
2026-04-27 17:13 31.62610 -11.39142 34943 ft 480 kts 36°
2026-04-27 17:13 31.67912 -11.34422 34937 ft 480 kts 36°
2026-04-27 17:14 31.73233 -11.29678 34955 ft 479 kts 36°
2026-04-27 17:14 31.75888 -11.27313 35171 ft 477 kts 36°
2026-04-27 17:14 31.78533 -11.24961 35429 ft 476 kts 36°
2026-04-27 17:14 31.81174 -11.22612 35675 ft 474 kts 36°
2026-04-27 17:15 31.83808 -11.20266 35901 ft 473 kts 36°
2026-04-27 17:15 31.89053 -11.15591 35926 ft 478 kts 36°
2026-04-27 17:16 31.94364 -11.10850 35930 ft 478 kts 36°
2026-04-27 17:16 31.99668 -11.06109 35926 ft 477 kts 36°
2026-04-27 17:17 32.04918 -11.01408 35920 ft 477 kts 36°
2026-04-27 17:17 32.10201 -10.96671 35920 ft 477 kts 36°
2026-04-27 17:18 32.18116 -10.89560 35917 ft 476 kts 36°
2026-04-27 17:18 32.23383 -10.84820 35919 ft 476 kts 36°
2026-04-27 17:19 32.28626 -10.80094 35913 ft 475 kts 36°
2026-04-27 17:19 32.33888 -10.75344 35909 ft 475 kts 37°
2026-04-27 17:20 32.39104 -10.70629 35910 ft 475 kts 37°
2026-04-27 17:20 32.44320 -10.65906 35908 ft 474 kts 37°
2026-04-27 17:21 32.49559 -10.61155 35900 ft 474 kts 37°
2026-04-27 17:21 32.54801 -10.56394 35908 ft 474 kts 37°
2026-04-27 17:22 32.60040 -10.51629 35892 ft 474 kts 37°
2026-04-27 17:22 32.65270 -10.46866 35895 ft 473 kts 37°
2026-04-27 17:23 32.70471 -10.42120 35888 ft 473 kts 37°
2026-04-27 17:23 32.75699 -10.37344 35898 ft 473 kts 37°
2026-04-27 17:24 32.80907 -10.32579 35894 ft 472 kts 37°
2026-04-27 17:24 32.86087 -10.27831 35892 ft 472 kts 37°
2026-04-27 17:25 32.91294 -10.23054 35882 ft 472 kts 37°
2026-04-27 17:25 32.96490 -10.18279 35887 ft 472 kts 38°
2026-04-27 17:26 33.01685 -10.13494 35883 ft 471 kts 38°
2026-04-27 17:26 33.06834 -10.08738 35878 ft 471 kts 38°
2026-04-27 17:27 33.12020 -10.03944 35880 ft 471 kts 38°
2026-04-27 17:27 33.17199 -9.99147 35880 ft 471 kts 38°
2026-04-27 17:28 33.22336 -9.94382 35876 ft 470 kts 38°
2026-04-27 17:29 33.30087 -9.87179 35968 ft 470 kts 39°
2026-04-27 17:29 33.35197 -9.82422 35881 ft 462 kts 39°
2026-04-27 17:30 33.40266 -9.77695 35868 ft 463 kts 39°
2026-04-27 17:30 33.47890 -9.70573 35869 ft 463 kts 39°
2026-04-27 17:31 33.52971 -9.65816 35866 ft 463 kts 39°
2026-04-27 17:31 33.58030 -9.61074 35863 ft 463 kts 39°
2026-04-27 17:32 33.65651 -9.53915 35860 ft 463 kts 39°
2026-04-27 17:33 33.70730 -9.49136 35862 ft 463 kts 39°
2026-04-27 17:33 33.74945 -9.45163 35863 ft 464 kts 39°
2026-04-27 17:34 33.80848 -9.39592 35862 ft 464 kts 39°
2026-04-27 17:34 33.85100 -9.35572 35861 ft 464 kts 39°
2026-04-27 17:35 33.90178 -9.30765 35862 ft 464 kts 39°
2026-04-27 17:35 33.95227 -9.25978 35860 ft 464 kts 39°
2026-04-27 17:36 34.00306 -9.21154 35859 ft 464 kts 39°
2026-04-27 17:36 34.05377 -9.16331 35858 ft 464 kts 39°
2026-04-27 17:37 34.10410 -9.11536 35860 ft 464 kts 39°
2026-04-27 17:37 34.15494 -9.06686 35861 ft 464 kts 39°
2026-04-27 17:38 34.20562 -9.01843 35857 ft 464 kts 39°
2026-04-27 17:38 34.25632 -8.96991 35855 ft 465 kts 39°
2026-04-27 17:39 34.30699 -8.92133 35856 ft 465 kts 39°
2026-04-27 17:39 34.35769 -8.87267 35856 ft 465 kts 39°
2026-04-27 17:40 34.40826 -8.82405 35853 ft 464 kts 39°
2026-04-27 17:40 34.45564 -8.77206 35851 ft 460 kts 54°
2026-04-27 17:41 34.49590 -8.71140 35851 ft 462 kts 52°
2026-04-27 17:41 34.53628 -8.65054 35848 ft 463 kts 53°
2026-04-27 17:42 34.57651 -8.58967 35849 ft 463 kts 53°
2026-04-27 17:42 34.61677 -8.52863 35849 ft 463 kts 53°
2026-04-27 17:43 34.65708 -8.46741 35858 ft 463 kts 53°
2026-04-27 17:43 34.69704 -8.40661 35852 ft 464 kts 53°
2026-04-27 17:44 34.73728 -8.34528 35858 ft 464 kts 53°
2026-04-27 17:44 34.77755 -8.28379 35855 ft 464 kts 53°
2026-04-27 17:45 34.81778 -8.22227 35852 ft 464 kts 53°
2026-04-27 17:45 34.85777 -8.16100 35849 ft 464 kts 53°
2026-04-27 17:46 34.89797 -8.09931 35862 ft 465 kts 53°
2026-04-27 17:46 34.93823 -8.03741 35856 ft 465 kts 53°
2026-04-27 17:47 34.97844 -7.97549 35855 ft 465 kts 53°
2026-04-27 17:47 35.01833 -7.91394 35852 ft 465 kts 53°
2026-04-27 17:48 35.05838 -7.85204 35857 ft 465 kts 53°
2026-04-27 17:48 35.09846 -7.78999 35854 ft 465 kts 53°
2026-04-27 17:49 35.13855 -7.72779 35854 ft 466 kts 53°
2026-04-27 17:49 35.17874 -7.66536 35856 ft 466 kts 53°
2026-04-27 17:50 35.21862 -7.60328 35858 ft 466 kts 53°
2026-04-27 17:50 35.27873 -7.50950 35853 ft 466 kts 53°
2026-04-27 17:51 35.31873 -7.44697 35852 ft 466 kts 53°
2026-04-27 17:51 35.35867 -7.38440 35853 ft 467 kts 53°
2026-04-27 17:52 35.39867 -7.32164 35859 ft 467 kts 54°
2026-04-27 17:52 35.43843 -7.25912 35854 ft 468 kts 54°
2026-04-27 17:53 35.47853 -7.19598 35857 ft 469 kts 54°
2026-04-27 17:53 35.51869 -7.13262 35856 ft 469 kts 54°
2026-04-27 17:54 35.55874 -7.06931 35857 ft 470 kts 54°
2026-04-27 17:54 35.59884 -7.00582 35860 ft 471 kts 54°
2026-04-27 17:55 35.63880 -6.94243 35861 ft 472 kts 54°
2026-04-27 17:55 35.67911 -6.87836 35862 ft 473 kts 54°
2026-04-27 17:56 35.71923 -6.81446 35862 ft 474 kts 54°
2026-04-27 17:56 35.75960 -6.75008 35864 ft 475 kts 55°
2026-04-27 17:57 35.79981 -6.68583 35872 ft 476 kts 54°
2026-04-27 17:57 35.84024 -6.62113 35870 ft 476 kts 55°
2026-04-27 17:58 35.88067 -6.55631 35872 ft 476 kts 54°
2026-04-27 17:58 35.92107 -6.49140 35879 ft 476 kts 55°
2026-04-27 17:59 35.96138 -6.42639 35884 ft 476 kts 55°
2026-04-27 17:59 36.00165 -6.36144 35888 ft 477 kts 54°
2026-04-27 18:00 36.04172 -6.29666 35894 ft 477 kts 55°
2026-04-27 18:00 36.08222 -6.23109 35898 ft 477 kts 55°
2026-04-27 18:01 36.12225 -6.16616 35900 ft 478 kts 54°
2026-04-27 18:01 36.16254 -6.10067 35904 ft 478 kts 55°
2026-04-27 18:02 36.20284 -6.03505 35906 ft 478 kts 54°
2026-04-27 18:02 36.24208 -5.96921 35908 ft 476 kts 61°
2026-04-27 18:03 36.27604 -5.89869 35922 ft 477 kts 61°
2026-04-27 18:03 36.30991 -5.82775 35930 ft 477 kts 62°
2026-04-27 18:04 36.34360 -5.75694 35937 ft 476 kts 61°
2026-04-27 18:04 36.37722 -5.68617 35939 ft 475 kts 62°
2026-04-27 18:05 36.41083 -5.61527 35961 ft 476 kts 61°
2026-04-27 18:05 36.44434 -5.54443 35968 ft 475 kts 61°
2026-04-27 18:06 36.47774 -5.47368 35974 ft 474 kts 61°
2026-04-27 18:06 36.50915 -5.40220 35965 ft 470 kts 71°
2026-04-27 18:07 36.53193 -5.32581 35979 ft 471 kts 71°
2026-04-27 18:07 36.55490 -5.24936 35986 ft 471 kts 71°
2026-04-27 18:08 36.57761 -5.17346 35990 ft 471 kts 71°
2026-04-27 18:08 36.60040 -5.09706 35996 ft 471 kts 71°
2026-04-27 18:09 36.62319 -5.02046 36001 ft 471 kts 71°
2026-04-27 18:09 36.64588 -4.94398 36004 ft 471 kts 71°
2026-04-27 18:10 36.66853 -4.86744 36004 ft 470 kts 71°
2026-04-27 18:10 36.69108 -4.79098 36010 ft 470 kts 71°
2026-04-27 18:11 36.71348 -4.71486 36021 ft 470 kts 71°
2026-04-27 18:11 36.73597 -4.63824 36017 ft 471 kts 71°
2026-04-27 18:12 36.75844 -4.56145 36016 ft 471 kts 71°
2026-04-27 18:12 36.78086 -4.48461 36022 ft 471 kts 71°
2026-04-27 18:13 36.80312 -4.40824 36021 ft 471 kts 71°
2026-04-27 18:13 36.81776 -4.37160 35997 ft 472 kts 55°
2026-04-27 18:13 36.83912 -4.34052 36022 ft 473 kts 47°
2026-04-27 18:14 36.88490 -4.28070 36004 ft 475 kts 46°
2026-04-27 18:14 36.93088 -4.22197 35996 ft 476 kts 46°
2026-04-27 18:15 36.97735 -4.16291 35998 ft 475 kts 46°
2026-04-27 18:15 37.02372 -4.10388 35992 ft 476 kts 46°
2026-04-27 18:16 37.07017 -4.04464 35983 ft 476 kts 46°
2026-04-27 18:16 37.11616 -3.98587 35961 ft 475 kts 46°
2026-04-27 18:17 37.16248 -3.92659 35969 ft 475 kts 46°
2026-04-27 18:17 37.20870 -3.86732 35967 ft 475 kts 46°
2026-04-27 18:18 37.25502 -3.80780 35962 ft 476 kts 46°
2026-04-27 18:18 37.30135 -3.74817 35968 ft 476 kts 46°
2026-04-27 18:19 37.34722 -3.68901 35972 ft 475 kts 46°
2026-04-27 18:19 37.39343 -3.62932 35974 ft 475 kts 46°
2026-04-27 18:20 37.43177 -3.57968 35968 ft 475 kts 46°
2026-04-27 18:20 37.47789 -3.51989 35968 ft 475 kts 46°
2026-04-27 18:21 37.52368 -3.46040 35973 ft 475 kts 46°
2026-04-27 18:21 37.56969 -3.40052 35963 ft 475 kts 46°
2026-04-27 18:22 37.61569 -3.34054 35969 ft 475 kts 46°
2026-04-27 18:22 37.66158 -3.28060 35963 ft 474 kts 46°
2026-04-27 18:23 37.70744 -3.22057 35970 ft 474 kts 46°
2026-04-27 18:23 37.75286 -3.16101 35967 ft 473 kts 46°
2026-04-27 18:24 37.79860 -3.10091 35981 ft 474 kts 46°
2026-04-27 18:24 37.84436 -3.04068 35978 ft 474 kts 46°
2026-04-27 18:25 37.89009 -2.98037 35982 ft 474 kts 46°
2026-04-27 18:25 37.93549 -2.92038 35987 ft 473 kts 46°
2026-04-27 18:26 37.98107 -2.86004 35995 ft 472 kts 46°
2026-04-27 18:26 38.02654 -2.79972 35999 ft 472 kts 46°
2026-04-27 18:27 38.07158 -2.73987 36013 ft 472 kts 46°
2026-04-27 18:27 38.11694 -2.67946 36008 ft 471 kts 46°
2026-04-27 18:28 38.16217 -2.61912 36026 ft 472 kts 46°
2026-04-27 18:28 38.20750 -2.55854 36029 ft 472 kts 46°
2026-04-27 18:29 38.25292 -2.49770 36043 ft 474 kts 46°
2026-04-27 18:29 38.29798 -2.43725 36037 ft 473 kts 46°
2026-04-27 18:30 38.34330 -2.37632 36040 ft 473 kts 46°
2026-04-27 18:30 38.38582 -2.31210 36049 ft 473 kts 51°
2026-04-27 18:31 38.42642 -2.24658 36057 ft 473 kts 51°
2026-04-27 18:31 38.46709 -2.18063 36052 ft 472 kts 51°
2026-04-27 18:32 38.50768 -2.11465 36051 ft 472 kts 51°
2026-04-27 18:32 38.54829 -2.04854 36041 ft 472 kts 51°
2026-04-27 18:33 38.58862 -1.98275 36053 ft 472 kts 51°
2026-04-27 18:33 38.62916 -1.91649 36044 ft 472 kts 51°
2026-04-27 18:34 38.66959 -1.85028 36054 ft 472 kts 51°
2026-04-27 18:34 38.70973 -1.78440 36049 ft 471 kts 51°
2026-04-27 18:35 38.75000 -1.71814 36054 ft 471 kts 51°
2026-04-27 18:35 38.79019 -1.65187 36050 ft 471 kts 51°
2026-04-27 18:36 38.83007 -1.58600 36051 ft 471 kts 51°
2026-04-27 18:36 38.87017 -1.51960 36051 ft 471 kts 51°
2026-04-27 18:37 38.91025 -1.45312 36057 ft 471 kts 51°
2026-04-27 18:37 38.95036 -1.38643 36052 ft 471 kts 51°
2026-04-27 18:38 38.99008 -1.32027 36063 ft 470 kts 51°
2026-04-27 18:38 39.03007 -1.25352 36066 ft 470 kts 51°
2026-04-27 18:39 39.07000 -1.18672 36067 ft 470 kts 51°
2026-04-27 18:39 39.10991 -1.11983 36067 ft 470 kts 51°
2026-04-27 18:40 39.14970 -1.05298 36078 ft 470 kts 51°
2026-04-27 18:40 39.18925 -0.98642 36073 ft 470 kts 51°
2026-04-27 18:41 39.21585 -0.94157 36072 ft 470 kts 51°
2026-04-27 18:42 39.23707 -0.90575 36079 ft 470 kts 51°
2026-04-27 18:42 39.28319 -0.82774 36082 ft 470 kts 51°
2026-04-27 18:43 39.32286 -0.76050 36075 ft 470 kts 51°
2026-04-27 18:43 39.36246 -0.69322 36075 ft 470 kts 51°
2026-04-27 18:44 39.40171 -0.62640 36076 ft 469 kts 51°
2026-04-27 18:44 39.44121 -0.55901 36077 ft 469 kts 51°
2026-04-27 18:45 39.48074 -0.49162 36076 ft 469 kts 49°
2026-04-27 18:45 39.52480 -0.42974 36078 ft 468 kts 45°